SITRO-AIS 7 (FARTUSHNIY)

Last updated on Wed Oct 29 2025 00:03:53 GMT+0000 (Coordinated Universal Time)

1 57194U 23091AE 25301.64394449 .00008274 00000+0 36588-3 0 9998 2 57194 97.5408 358.8140 0012484 190.8287 169.2682 15.21887630129012
UTC large
Height (km)
Speed (km/s)
/
Latitude / Longitude
Inclination (degrees)
Orbital Period (minutes)
Azimuth
Elevation
Range (km)
Doppler Factor

Next 0 passes for location: London (51.5072 / 0.1276)

Sorry there are no passes over London.